KLM887 EHAM-VHHH

Flight info

Callsign KLM887
Flight time N/A
Altitude 35000
Route ARNEM L620 HMM DCT NOMKA DCT OMELO DCT ODLIV DCT OMIFU DCT SAGAN DCT ETNOG DCT ROMAG DCT UDROS UM859 KARDE UL851 TBN UM11 REBLO M11 LUSAL N199 RASAM L88 METKA B476 DARVA/K0904F350 T898 SUDAR/K0895F370 T898 OGOLI N193 SR L163 TISIB L141 KAMUD/K0891S1130 W186 SADAN Y1 NUPNI/K0895S1190 Y1 OMBON W245 OVRAL B330 KWE W181 DUDIT A599 POU R473 SIERA
Aircraft B789/H-SDE1E2E3FGHIJ2J3J4J5M1RWXY/LB1D1

Departure

Time 2026-05-05 22:08
Airport Amsterdam Airport Schiphol (EHAM)

Arrival

Time N/A
Airport Hong Kong International Airport (VHHH)
Time Latitude Longitude Altitude Speed Heading
2026-05-05 21:34 52.31318 4.76671 4 ft 0 kts 123°
2026-05-05 21:53 52.31324 4.76658 4 ft 4 kts 123°
2026-05-05 21:54 52.31337 4.76623 5 ft 4 kts 120°
2026-05-05 21:54 52.31348 4.76587 4 ft 4 kts 110°
2026-05-05 21:54 52.31353 4.76551 4 ft 4 kts 68°
2026-05-05 21:54 52.31348 4.76537 4 ft 0 kts 34°
2026-05-05 21:55 52.31367 4.76559 4 ft 2 kts 33°
2026-05-05 21:55 52.31369 4.76560 4 ft 0 kts 33°
2026-05-05 21:58 52.31372 4.76564 4 ft 2 kts 33°
2026-05-05 21:58 52.31395 4.76577 4 ft 5 kts 359°
2026-05-05 21:59 52.31431 4.76528 4 ft 11 kts 306°
2026-05-05 21:59 52.31493 4.76386 4 ft 20 kts 305°
2026-05-05 21:59 52.31537 4.76177 4 ft 19 kts 267°
2026-05-05 21:59 52.31530 4.75966 4 ft 18 kts 267°
2026-05-05 22:00 52.31523 4.75765 4 ft 17 kts 267°
2026-05-05 22:00 52.31517 4.75573 4 ft 17 kts 267°
2026-05-05 22:00 52.31511 4.75404 4 ft 14 kts 266°
2026-05-05 22:00 52.31506 4.75257 4 ft 13 kts 266°
2026-05-05 22:01 52.31501 4.75118 4 ft 12 kts 266°
2026-05-05 22:01 52.31496 4.74987 4 ft 11 kts 266°
2026-05-05 22:01 52.31491 4.74863 4 ft 11 kts 266°
2026-05-05 22:01 52.31487 4.74745 4 ft 10 kts 267°
2026-05-05 22:02 52.31484 4.74632 4 ft 10 kts 267°
2026-05-05 22:02 52.31481 4.74524 4 ft 9 kts 267°
2026-05-05 22:02 52.31477 4.74413 4 ft 10 kts 267°
2026-05-05 22:02 52.31473 4.74293 4 ft 11 kts 265°
2026-05-05 22:03 52.31440 4.74169 4 ft 14 kts 225°
2026-05-05 22:03 52.31341 4.74133 4 ft 17 kts 184°
2026-05-05 22:03 52.31213 4.74120 4 ft 20 kts 184°
2026-05-05 22:03 52.31059 4.74105 4 ft 24 kts 183°
2026-05-05 22:04 52.30886 4.74093 4 ft 25 kts 183°
2026-05-05 22:04 52.30717 4.74077 4 ft 24 kts 183°
2026-05-05 22:04 52.30555 4.74063 4 ft 23 kts 183°
2026-05-05 22:04 52.30400 4.74050 4 ft 21 kts 185°
2026-05-05 22:05 52.30327 4.74009 4 ft 1 kts 205°
2026-05-05 22:05 52.30308 4.73995 4 ft 8 kts 205°
2026-05-05 22:05 52.30226 4.73922 4 ft 17 kts 216°
2026-05-05 22:05 52.30202 4.73771 3 ft 13 kts 302°
2026-05-05 22:06 52.30263 4.73741 1 ft 3 kts
2026-05-05 22:06 52.30267 4.73741 1 ft 0 kts
2026-05-05 22:07 52.30277 4.73743 1 ft 6 kts
2026-05-05 22:07 52.30411 4.73758 2 ft 44 kts
2026-05-05 22:07 52.30925 4.73803 4 ft 103 kts
2026-05-05 22:08 52.31826 4.73887 4 ft 155 kts
2026-05-05 22:08 52.33018 4.73969 286 ft 173 kts 357°
2026-05-05 22:08 52.34194 4.73979 1236 ft 171 kts
2026-05-05 22:08 52.35413 4.74101 1963 ft 178 kts 13°
2026-05-05 22:09 52.36569 4.74831 2528 ft 183 kts 35°
2026-05-05 22:09 52.37578 4.76218 2938 ft 195 kts 40°
2026-05-05 22:09 52.38603 4.77775 3376 ft 208 kts 46°
2026-05-05 22:09 52.39572 4.79654 3745 ft 228 kts 49°
2026-05-05 22:10 52.40632 4.81690 4293 ft 241 kts 47°
2026-05-05 22:10 52.41762 4.83761 4972 ft 248 kts 53°
2026-05-05 22:10 52.42318 4.86463 5671 ft 254 kts 78°
2026-05-05 22:10 52.42428 4.89390 6414 ft 260 kts 86°
2026-05-05 22:11 52.42411 4.92389 7076 ft 266 kts 89°
2026-05-05 22:11 52.42388 4.95439 7674 ft 270 kts 89°
2026-05-05 22:11 52.41963 4.98473 8063 ft 282 kts 119°
2026-05-05 22:11 52.40721 5.00926 8692 ft 284 kts 141°
2026-05-05 22:12 52.39079 5.02743 9314 ft 286 kts 145°
2026-05-05 22:12 52.37434 5.04617 9909 ft 289 kts 144°
2026-05-05 22:12 52.35776 5.06565 10304 ft 300 kts 143°
2026-05-05 22:12 52.34065 5.08660 10500 ft 315 kts 137°
2026-05-05 22:13 52.32828 5.11687 10662 ft 329 kts 112°
2026-05-05 22:13 52.31993 5.15249 10912 ft 342 kts 109°
2026-05-05 22:13 52.31193 5.18906 11351 ft 349 kts 109°
2026-05-05 22:13 52.30319 5.22628 11876 ft 352 kts 111°
2026-05-05 22:14 52.29401 5.26365 12417 ft 356 kts 111°
2026-05-05 22:14 52.28486 5.30152 12946 ft 359 kts 111°
2026-05-05 22:14 52.27580 5.33978 13457 ft 363 kts 110°
2026-05-05 22:14 52.26662 5.37849 13936 ft 367 kts 111°
2026-05-05 22:15 52.25724 5.41744 14430 ft 369 kts 111°
2026-05-05 22:15 52.24779 5.45653 14944 ft 370 kts 111°
2026-05-05 22:15 52.23837 5.49560 15499 ft 371 kts 111°
2026-05-05 22:15 52.22895 5.53478 16157 ft 372 kts 111°
2026-05-05 22:16 52.21948 5.57410 16836 ft 373 kts 111°
2026-05-05 22:16 52.20991 5.61362 17464 ft 376 kts 111°
2026-05-05 22:16 52.20351 5.63994 17878 ft 378 kts 111°
2026-05-05 22:16 52.19377 5.67990 18476 ft 380 kts 111°
2026-05-05 22:17 52.18401 5.72008 18979 ft 383 kts 112°
2026-05-05 22:17 52.17414 5.76062 19467 ft 387 kts 112°
2026-05-05 22:17 52.16411 5.80168 19715 ft 398 kts 112°
2026-05-05 22:17 52.15361 5.84442 19756 ft 413 kts 113°
2026-05-05 22:18 52.14285 5.88824 20091 ft 420 kts 112°
2026-05-05 22:18 52.13198 5.93265 20512 ft 424 kts 113°
2026-05-05 22:18 52.12113 5.97688 20880 ft 428 kts 114°
2026-05-05 22:18 52.10997 6.02202 21303 ft 431 kts 114°
2026-05-05 22:19 52.09891 6.06764 21703 ft 435 kts 111°
2026-05-05 22:19 52.09223 6.11597 22066 ft 440 kts 100°
2026-05-05 22:19 52.08737 6.16531 22472 ft 443 kts 101°
2026-05-05 22:19 52.08223 6.21480 22872 ft 445 kts 102°
2026-05-05 22:20 52.07693 6.26460 23253 ft 448 kts 102°
2026-05-05 22:20 52.07167 6.31457 23596 ft 451 kts 102°
2026-05-05 22:20 52.06643 6.36497 23922 ft 453 kts 102°
2026-05-05 22:20 52.06118 6.41487 24256 ft 454 kts 102°
2026-05-05 22:21 52.05582 6.46539 24621 ft 454 kts 102°
2026-05-05 22:21 52.05040 6.51590 24953 ft 455 kts 102°
2026-05-05 22:21 52.04495 6.56668 25266 ft 456 kts 102°
2026-05-05 22:21 52.03950 6.61760 25587 ft 457 kts 102°
2026-05-05 22:22 52.03401 6.66861 25887 ft 459 kts 102°
2026-05-05 22:22 52.02847 6.71962 26170 ft 460 kts 102°
2026-05-05 22:22 52.02268 6.77073 26445 ft 460 kts 105°
2026-05-05 22:22 52.01479 6.82102 26682 ft 461 kts 107°
2026-05-05 22:23 52.00671 6.87152 26947 ft 462 kts 107°
2026-05-05 22:23 51.99881 6.92154 27197 ft 463 kts 107°
2026-05-05 22:23 51.99087 6.97225 27445 ft 465 kts 107°
2026-05-05 22:23 51.98280 7.02323 27695 ft 466 kts 107°
2026-05-05 22:24 51.97465 7.07419 27941 ft 468 kts 107°
2026-05-05 22:24 51.96610 7.12511 28153 ft 467 kts 110°
2026-05-05 22:24 51.95657 7.17564 28347 ft 469 kts 109°
2026-05-05 22:24 51.94727 7.22633 28573 ft 470 kts 109°
2026-05-05 22:25 51.93797 7.27714 28798 ft 471 kts 109°
2026-05-05 22:25 51.92849 7.32803 29004 ft 472 kts 110°
2026-05-05 22:25 51.91907 7.37827 29223 ft 472 kts 110°
2026-05-05 22:25 51.90953 7.42916 29471 ft 473 kts 110°
2026-05-05 22:26 51.89997 7.48019 29677 ft 474 kts 110°
2026-05-05 22:26 51.89037 7.53129 29886 ft 475 kts 110°
2026-05-05 22:26 51.88071 7.58253 30065 ft 476 kts 110°
2026-05-05 22:26 51.87099 7.63386 30233 ft 477 kts 110°
2026-05-05 22:27 51.86126 7.68521 30394 ft 478 kts 110°
2026-05-05 22:27 51.85283 7.73734 30508 ft 481 kts 105°
2026-05-05 22:27 51.84594 7.79031 30708 ft 481 kts 105°
2026-05-05 22:27 51.83889 7.84315 30893 ft 481 kts 105°
2026-05-05 22:28 51.83166 7.89614 31091 ft 481 kts 106°
2026-05-05 22:28 51.82447 7.94885 31311 ft 480 kts 106°
2026-05-05 22:28 51.81735 8.00161 31521 ft 479 kts 106°
2026-05-05 22:28 51.81023 8.05421 31737 ft 479 kts 106°
2026-05-05 22:29 51.80303 8.10674 31972 ft 478 kts 106°
2026-05-05 22:29 51.79581 8.15906 32194 ft 477 kts 107°
2026-05-05 22:29 51.78862 8.21130 32438 ft 476 kts 107°
2026-05-05 22:29 51.78143 8.26345 32684 ft 475 kts 107°
2026-05-05 22:30 51.77421 8.31546 32899 ft 474 kts 107°
2026-05-05 22:30 51.76698 8.36736 33146 ft 473 kts 107°
2026-05-05 22:30 51.75976 8.41906 33374 ft 472 kts 107°
2026-05-05 22:30 51.75254 8.47063 33602 ft 470 kts 107°
2026-05-05 22:31 51.74530 8.52206 33839 ft 469 kts 107°
2026-05-05 22:31 51.73806 8.57332 33984 ft 468 kts 107°
2026-05-05 22:31 51.73087 8.62403 34106 ft 469 kts 107°
2026-05-05 22:31 51.72358 8.67532 34235 ft 470 kts 107°
2026-05-05 22:32 51.71627 8.72662 34401 ft 469 kts 107°
2026-05-05 22:32 51.70893 8.77795 34544 ft 469 kts 107°
2026-05-05 22:32 51.70157 8.82922 34718 ft 468 kts 107°
2026-05-05 22:33 51.68675 8.93188 34798 ft 472 kts 107°
2026-05-05 22:33 51.67184 9.03468 34797 ft 469 kts 107°
2026-05-05 22:34 51.65686 9.13699 34801 ft 468 kts 107°
2026-05-05 22:34 51.64199 9.23812 34806 ft 467 kts 107°
2026-05-05 22:35 51.62689 9.34005 34799 ft 468 kts 107°
2026-05-05 22:35 51.61167 9.44207 34800 ft 469 kts 107°
2026-05-05 22:36 51.59634 9.54427 34801 ft 470 kts 107°
2026-05-05 22:36 51.58089 9.64648 34810 ft 471 kts 107°
2026-05-05 22:37 51.56539 9.74858 34806 ft 468 kts 107°
2026-05-05 22:37 51.54984 9.85011 34803 ft 468 kts 107°
2026-05-05 22:38 51.53431 9.95105 34797 ft 468 kts 107°
2026-05-05 22:38 51.51860 10.05240 34801 ft 468 kts 107°
2026-05-05 22:39 51.50280 10.15378 34791 ft 468 kts 107°
2026-05-05 22:39 51.48689 10.25520 34802 ft 470 kts 108°
2026-05-05 22:40 51.47085 10.35694 34800 ft 469 kts 108°
2026-05-05 22:40 51.45477 10.45814 34798 ft 468 kts 108°
2026-05-05 22:41 51.43871 10.55915 34798 ft 469 kts 108°
2026-05-05 22:41 51.42277 10.66051 34801 ft 469 kts 108°
2026-05-05 22:42 51.40652 10.76215 34803 ft 471 kts 108°
2026-05-05 22:42 51.39036 10.86326 34803 ft 471 kts 108°
2026-05-05 22:43 51.37398 10.96474 34800 ft 470 kts 108°
2026-05-05 22:43 51.35759 11.06588 34775 ft 470 kts 108°
2026-05-05 22:44 51.34108 11.16700 34795 ft 471 kts 108°
2026-05-05 22:44 51.32444 11.26847 34796 ft 471 kts 108°
2026-05-05 22:45 51.30771 11.36974 34791 ft 470 kts 108°
2026-05-05 22:45 51.29092 11.47083 34792 ft 470 kts 108°
2026-05-05 22:46 51.27407 11.57161 34789 ft 471 kts 109°
2026-05-05 22:46 51.25716 11.67231 34785 ft 472 kts 108°
2026-05-05 22:47 51.24005 11.77350 34786 ft 472 kts 109°
2026-05-05 22:47 51.22287 11.87450 34789 ft 471 kts 109°
2026-05-05 22:48 51.20564 11.97534 34759 ft 471 kts 109°
2026-05-05 22:48 51.18821 12.07656 34768 ft 476 kts 109°
2026-05-05 22:49 51.17058 12.17848 34769 ft 477 kts 109°
2026-05-05 22:49 51.15289 12.28019 34766 ft 475 kts 109°
2026-05-05 22:50 51.13512 12.38161 34774 ft 477 kts 109°
2026-05-05 22:50 51.11730 12.48310 34766 ft 476 kts 109°
2026-05-05 22:51 51.09933 12.58451 34770 ft 480 kts 109°
2026-05-05 22:51 51.08103 12.68720 34769 ft 479 kts 109°
2026-05-05 22:52 51.06294 12.78835 34771 ft 478 kts 109°
2026-05-05 22:52 51.04462 12.88998 34760 ft 479 kts 109°
2026-05-05 22:53 51.02609 12.99239 34767 ft 483 kts 109°
2026-05-05 22:53 51.00745 13.09478 34767 ft 482 kts 110°
2026-05-05 22:54 50.98871 13.19709 34770 ft 482 kts 110°
2026-05-05 22:54 50.96991 13.29922 34774 ft 483 kts 110°
2026-05-05 22:55 50.95112 13.40092 34772 ft 486 kts 110°
2026-05-05 22:55 50.93190 13.50403 34784 ft 487 kts 110°
2026-05-05 22:56 50.91266 13.60674 34787 ft 486 kts 110°
2026-05-05 22:56 50.89331 13.70964 34792 ft 487 kts 110°
2026-05-05 22:57 50.87381 13.81255 34795 ft 488 kts 110°
2026-05-05 22:57 50.85429 13.91519 34796 ft 486 kts 110°
2026-05-05 22:58 50.83176 14.01457 34782 ft 479 kts 122°
2026-05-05 22:58 50.79644 14.10340 34789 ft 478 kts 126°
2026-05-05 22:59 50.76054 14.19205 34771 ft 479 kts 126°
2026-05-05 22:59 50.72438 14.28103 34790 ft 483 kts 126°
2026-05-05 23:00 50.66993 14.41443 34788 ft 481 kts 127°
2026-05-05 23:00 50.63346 14.50324 34782 ft 484 kts 127°
2026-05-05 23:01 50.59692 14.59213 34774 ft 483 kts 127°
2026-05-05 23:01 50.56004 14.68149 34774 ft 488 kts 127°
2026-05-05 23:02 50.52290 14.77096 34781 ft 487 kts 127°
2026-05-05 23:02 50.48593 14.86007 34765 ft 486 kts 127°
2026-05-05 23:03 50.44919 14.94843 34776 ft 486 kts 127°
2026-05-05 23:03 50.41221 15.03742 34773 ft 489 kts 127°
2026-05-05 23:04 50.37479 15.12687 34767 ft 490 kts 127°
2026-05-05 23:04 50.33742 15.21615 34767 ft 489 kts 127°
2026-05-05 23:05 50.30007 15.30486 34760 ft 488 kts 127°
2026-05-05 23:05 50.26266 15.39350 34753 ft 489 kts 127°
2026-05-05 23:06 50.23127 15.46774 34752 ft 494 kts 127°
2026-05-05 23:06 50.18714 15.57159 34752 ft 493 kts 127°
2026-05-05 23:07 50.14922 15.66057 34750 ft 492 kts 127°
2026-05-05 23:07 50.11770 15.73428 34747 ft 491 kts 127°
2026-05-05 23:08 50.07973 15.82278 34745 ft 492 kts 127°
2026-05-05 23:08 50.04154 15.91150 34748 ft 493 kts 127°
2026-05-05 23:09 50.00512 16.00182 34771 ft 494 kts 121°
2026-05-05 23:09 49.97286 16.09619 34777 ft 494 kts 121°
2026-05-05 23:10 49.94016 16.18948 34774 ft 495 kts 121°
2026-05-05 23:10 49.90741 16.28382 34781 ft 497 kts 121°
2026-05-05 23:11 49.87439 16.37794 34794 ft 497 kts 121°
2026-05-05 23:11 49.84128 16.47218 34795 ft 497 kts 121°
2026-05-05 23:12 49.80815 16.56608 34787 ft 497 kts 121°
2026-05-05 23:12 49.77495 16.65987 34787 ft 497 kts 121°
2026-05-05 23:13 49.74162 16.75365 34792 ft 498 kts 121°
2026-05-05 23:13 49.70818 16.84742 34800 ft 498 kts 121°
2026-05-05 23:14 49.67488 16.94046 34797 ft 497 kts 121°
2026-05-05 23:14 49.64134 17.03381 34793 ft 496 kts 121°
2026-05-05 23:15 49.60779 17.12687 34794 ft 496 kts 121°
2026-05-05 23:15 49.57421 17.21968 34798 ft 496 kts 121°
2026-05-05 23:16 49.54044 17.31265 34794 ft 498 kts 121°
2026-05-05 23:16 49.50652 17.40576 34798 ft 498 kts 121°
2026-05-05 23:17 49.47257 17.49858 34800 ft 498 kts 121°
2026-05-05 23:17 49.43854 17.59125 34811 ft 497 kts 121°
2026-05-05 23:18 49.40474 17.68305 34814 ft 497 kts 122°
2026-05-05 23:18 49.37059 17.77543 34818 ft 497 kts 122°
2026-05-05 23:19 49.33637 17.86766 34818 ft 497 kts 122°
2026-05-05 23:19 49.30210 17.95970 34820 ft 498 kts 122°
2026-05-05 23:20 49.26770 18.05181 34822 ft 498 kts 122°
2026-05-05 23:20 49.23307 18.14412 34836 ft 502 kts 122°
2026-05-05 23:21 49.19858 18.23587 34839 ft 499 kts 122°
2026-05-05 23:21 49.16381 18.32788 34837 ft 500 kts 122°
2026-05-05 23:22 49.12885 18.41947 34832 ft 499 kts 122°
2026-05-05 23:22 49.09330 18.51051 34858 ft 499 kts 122°
2026-05-05 23:23 49.05804 18.60173 34855 ft 499 kts 122°
2026-05-05 23:23 49.02272 18.69200 34866 ft 500 kts 122°
2026-05-05 23:24 48.98719 18.78299 34867 ft 499 kts 122°
2026-05-05 23:24 48.95149 18.87379 34864 ft 500 kts 122°
2026-05-05 23:25 48.91574 18.96459 34883 ft 499 kts 122°
2026-05-05 23:25 48.87999 19.05501 34884 ft 499 kts 122°
2026-05-05 23:26 48.84421 19.14521 34893 ft 498 kts 122°
2026-05-05 23:26 48.80824 19.23565 34889 ft 503 kts 123°
2026-05-05 23:27 48.77231 19.32554 34895 ft 499 kts 122°
2026-05-05 23:27 48.73643 19.41514 34902 ft 496 kts 122°
2026-05-05 23:28 48.70042 19.50458 34907 ft 498 kts 122°
2026-05-05 23:28 48.66427 19.59429 34907 ft 500 kts 122°
2026-05-05 23:29 48.62795 19.68394 34915 ft 499 kts 122°
2026-05-05 23:29 48.59162 19.77340 34916 ft 499 kts 122°
2026-05-05 23:30 48.55533 19.86247 34906 ft 497 kts 122°
2026-05-05 23:30 48.51923 19.95076 34910 ft 497 kts 122°
2026-05-05 23:31 48.48283 20.03951 34913 ft 497 kts 122°
2026-05-05 23:31 48.44635 20.12812 34911 ft 498 kts 123°
2026-05-05 23:32 48.40973 20.21684 34908 ft 498 kts 123°
2026-05-05 23:32 48.37304 20.30535 34909 ft 499 kts 123°
2026-05-05 23:33 48.33622 20.39397 34918 ft 500 kts 123°
2026-05-05 23:33 48.29933 20.48241 34920 ft 500 kts 123°
2026-05-05 23:34 48.26238 20.57076 34916 ft 499 kts 123°
2026-05-05 23:34 48.22531 20.65901 34917 ft 500 kts 123°
2026-05-05 23:35 48.18841 20.74665 34919 ft 500 kts 123°
2026-05-05 23:35 48.15121 20.83472 34915 ft 499 kts 123°
2026-05-05 23:36 48.11404 20.92239 34907 ft 498 kts 123°
2026-05-05 23:36 48.07679 21.00999 34906 ft 499 kts 123°
2026-05-05 23:37 48.03944 21.09753 34913 ft 499 kts 123°
2026-05-05 23:37 48.00220 21.18458 34915 ft 500 kts 123°
2026-05-05 23:38 47.96465 21.27198 34912 ft 499 kts 123°
2026-05-05 23:38 47.92712 21.35912 34914 ft 499 kts 123°
2026-05-05 23:39 47.88948 21.44620 34915 ft 499 kts 123°
2026-05-05 23:39 47.85176 21.53321 34917 ft 500 kts 123°
2026-05-05 23:40 47.81415 21.61963 34929 ft 501 kts 123°
2026-05-05 23:40 47.77601 21.70719 34926 ft 502 kts 123°
2026-05-05 23:41 47.73809 21.79367 34932 ft 502 kts 123°
2026-05-05 23:41 47.70001 21.88049 34929 ft 501 kts 123°
2026-05-05 23:42 47.66178 21.96704 34930 ft 502 kts 124°
2026-05-05 23:42 47.61909 22.04883 34934 ft 501 kts 129°
2026-05-05 23:43 47.57606 22.13014 34930 ft 501 kts 128°
2026-05-05 23:43 47.53309 22.21153 34924 ft 501 kts 129°
2026-05-05 23:44 47.48998 22.29245 34930 ft 500 kts 128°
2026-05-05 23:44 47.44705 22.37324 34929 ft 500 kts 129°
2026-05-05 23:45 47.40532 22.45440 34937 ft 499 kts 126°
2026-05-05 23:45 47.36405 22.53725 34946 ft 502 kts 127°
2026-05-05 23:46 47.32291 22.62038 34953 ft 501 kts 126°
2026-05-05 23:46 47.28175 22.70307 34958 ft 500 kts 127°
2026-05-05 23:47 47.24059 22.78549 34963 ft 499 kts 127°
2026-05-05 23:47 47.19942 22.86778 34963 ft 499 kts 127°
2026-05-05 23:48 47.15814 22.95005 34972 ft 501 kts 127°
2026-05-05 23:48 47.11656 23.03252 34987 ft 503 kts 127°
2026-05-05 23:49 47.07525 23.11434 34982 ft 502 kts 127°
2026-05-05 23:49 47.03361 23.19653 34991 ft 501 kts 127°
2026-05-05 23:50 46.99189 23.27861 34995 ft 502 kts 127°
2026-05-05 23:50 46.95013 23.36062 34996 ft 502 kts 127°
2026-05-05 23:51 46.90823 23.44253 34999 ft 503 kts 127°
2026-05-05 23:51 46.86629 23.52439 35003 ft 503 kts 127°
2026-05-05 23:52 46.82440 23.60587 35001 ft 506 kts 127°
2026-05-05 23:52 46.78216 23.68774 35001 ft 504 kts 127°
2026-05-05 23:53 46.74003 23.76926 34995 ft 503 kts 127°
2026-05-05 23:53 46.69782 23.85055 34997 ft 504 kts 127°
2026-05-05 23:54 46.65546 23.93207 34993 ft 506 kts 127°
2026-05-05 23:54 46.61282 24.01371 34993 ft 506 kts 127°
2026-05-05 23:55 46.57050 24.09462 34996 ft 505 kts 127°
2026-05-05 23:55 46.52796 24.17578 34993 ft 505 kts 126°
2026-05-05 23:56 46.48531 24.25669 35005 ft 504 kts 127°
2026-05-05 23:56 46.44270 24.33737 35002 ft 503 kts 127°
2026-05-05 23:57 46.40000 24.41812 34996 ft 506 kts 127°
2026-05-05 23:57 46.35725 24.49858 35004 ft 507 kts 127°
2026-05-05 23:58 46.31418 24.57949 35009 ft 507 kts 127°
2026-05-05 23:58 46.27106 24.66022 35009 ft 507 kts 127°
2026-05-05 23:59 46.22792 24.74077 35010 ft 507 kts 127°
2026-05-05 23:59 46.18476 24.82112 35010 ft 506 kts 127°
2026-05-06 00:00 46.14889 24.88773 35006 ft 506 kts 127°
2026-05-06 00:00 46.10559 24.96794 35011 ft 507 kts 127°
2026-05-06 00:01 46.06213 25.04819 35015 ft 508 kts 126°
2026-05-06 00:01 46.01863 25.12830 35022 ft 507 kts 127°
2026-05-06 00:02 45.97504 25.20830 35025 ft 508 kts 127°
2026-05-06 00:02 45.93168 25.28771 35038 ft 507 kts 127°
2026-05-06 00:03 45.88811 25.36727 35029 ft 505 kts 126°
2026-05-06 00:03 45.84469 25.44632 35026 ft 504 kts 126°
2026-05-06 00:04 45.80112 25.52544 35027 ft 506 kts 127°
2026-05-06 00:04 45.75734 25.60468 35027 ft 508 kts 127°
2026-05-06 00:05 45.69150 25.72349 35031 ft 506 kts 127°
2026-05-06 00:06 45.64768 25.80219 35022 ft 505 kts 127°
2026-05-06 00:06 45.60384 25.88086 35030 ft 507 kts 127°
2026-05-06 00:07 45.56003 25.95913 35041 ft 507 kts 127°
2026-05-06 00:07 45.51594 26.03776 35041 ft 507 kts 127°
2026-05-06 00:08 45.47180 26.11622 35030 ft 507 kts 127°
2026-05-06 00:08 45.42766 26.19448 35042 ft 506 kts 127°
2026-05-06 00:09 45.38355 26.27245 35040 ft 505 kts 127°
2026-05-06 00:09 45.33940 26.35029 35037 ft 506 kts 127°
2026-05-06 00:10 45.29511 26.42816 35036 ft 507 kts 127°
2026-05-06 00:10 45.25081 26.50584 35029 ft 506 kts 127°
2026-05-06 00:11 45.20665 26.58309 35030 ft 506 kts 127°
2026-05-06 00:11 45.16224 26.66047 35033 ft 506 kts 127°
2026-05-06 00:12 45.11779 26.73782 35043 ft 505 kts 127°
2026-05-06 00:12 45.07339 26.81479 35042 ft 505 kts 127°
2026-05-06 00:13 45.02922 26.89120 35040 ft 504 kts 127°
2026-05-06 00:13 44.98467 26.96804 35047 ft 506 kts 128°
2026-05-06 00:14 44.94001 27.04485 35045 ft 505 kts 128°
2026-05-06 00:14 44.89543 27.12133 35044 ft 504 kts 128°
2026-05-06 00:15 44.85076 27.19779 35041 ft 507 kts 128°
2026-05-06 00:15 44.80580 27.27449 35050 ft 507 kts 128°
2026-05-06 00:16 44.76078 27.35113 35052 ft 507 kts 128°
2026-05-06 00:16 44.71573 27.42756 35050 ft 508 kts 128°
2026-05-06 00:17 44.67090 27.50345 35043 ft 507 kts 128°
2026-05-06 00:17 44.62605 27.57916 35050 ft 503 kts 128°
2026-05-06 00:18 44.58122 27.65465 35045 ft 504 kts 128°
2026-05-06 00:18 44.53625 27.73018 35043 ft 504 kts 128°
2026-05-06 00:19 44.49131 27.80539 35044 ft 502 kts 129°
2026-05-06 00:19 44.44644 27.88040 35044 ft 503 kts 129°
2026-05-06 00:20 44.40126 27.95561 35052 ft 505 kts 129°
2026-05-06 00:20 44.35638 28.03024 35052 ft 504 kts 129°
2026-05-06 00:21 44.31135 28.10483 35052 ft 501 kts 129°
2026-05-06 00:21 44.26643 28.17908 35050 ft 500 kts 129°
2026-05-06 00:22 44.22144 28.25325 35047 ft 500 kts 129°
2026-05-06 00:22 44.17643 28.32726 35053 ft 499 kts 130°
2026-05-06 00:23 44.13142 28.40110 35054 ft 499 kts 130°
2026-05-06 00:23 44.08633 28.47489 35053 ft 502 kts 129°
2026-05-06 00:24 44.04098 28.54885 35056 ft 502 kts 130°
2026-05-06 00:24 43.99584 28.62232 35057 ft 499 kts 130°
2026-05-06 00:25 43.95101 28.69509 35054 ft 499 kts 130°
2026-05-06 00:25 43.90578 28.76832 35065 ft 500 kts 130°
2026-05-06 00:26 43.86048 28.84156 35066 ft 500 kts 129°
2026-05-06 00:26 43.81506 28.91463 35064 ft 500 kts 130°
2026-05-06 00:27 43.76968 28.98761 35059 ft 500 kts 130°
2026-05-06 00:27 43.72418 29.06052 35064 ft 501 kts 129°
2026-05-06 00:28 43.67890 29.13289 35070 ft 501 kts 129°
2026-05-06 00:28 43.63322 29.20576 35067 ft 501 kts 129°
2026-05-06 00:29 43.58752 29.27843 35065 ft 502 kts 129°
2026-05-06 00:29 43.54175 29.35108 35064 ft 501 kts 129°
2026-05-06 00:30 43.49596 29.42354 35064 ft 501 kts 129°
2026-05-06 00:30 43.45007 29.49597 35064 ft 501 kts 129°
2026-05-06 00:31 43.40413 29.56834 35063 ft 503 kts 129°
2026-05-06 00:31 43.35829 29.64035 35060 ft 504 kts 129°
2026-05-06 00:32 43.31214 29.71265 35058 ft 503 kts 129°
2026-05-06 00:32 43.26593 29.78486 35058 ft 503 kts 129°
2026-05-06 00:33 43.21974 29.85688 35062 ft 502 kts 129°
2026-05-06 00:33 43.17353 29.92874 35061 ft 502 kts 129°
2026-05-06 00:34 43.12757 30.00005 35046 ft 502 kts 129°
2026-05-06 00:34 43.08116 30.07188 35062 ft 505 kts 129°
2026-05-06 00:35 43.03454 30.14384 35061 ft 505 kts 129°
2026-05-06 00:35 42.98782 30.21579 35055 ft 505 kts 129°
2026-05-06 00:36 42.94106 30.28759 35048 ft 507 kts 129°
2026-05-06 00:36 42.89416 30.35946 35051 ft 507 kts 129°
2026-05-06 00:37 42.84754 30.43072 35043 ft 507 kts 129°
2026-05-06 00:37 42.80053 30.50238 35056 ft 508 kts 129°
2026-05-06 00:38 42.75598 30.57671 35038 ft 504 kts 117°
2026-05-06 00:38 42.74090 30.61938 35041 ft 498 kts 106°
2026-05-06 00:38 42.73193 30.66449 35036 ft 492 kts 96°
2026-05-06 00:39 42.72283 30.75642 35059 ft 492 kts 94°
2026-05-06 00:39 42.71330 30.84867 35055 ft 492 kts 94°
2026-05-06 00:40 42.70388 30.94077 35053 ft 491 kts 94°
2026-05-06 00:40 42.69436 31.03260 35052 ft 490 kts 94°
2026-05-06 00:41 42.68481 31.12394 35047 ft 492 kts 94°
2026-05-06 00:41 42.67513 31.21603 35051 ft 492 kts 94°
2026-05-06 00:42 42.66535 31.30791 35048 ft 491 kts 94°
2026-05-06 00:42 42.65555 31.39987 35045 ft 491 kts 94°
2026-05-06 00:43 42.64564 31.49168 35040 ft 491 kts 94°
2026-05-06 00:43 42.63576 31.58278 35040 ft 490 kts 94°
2026-05-06 00:44 42.62573 31.67440 35042 ft 491 kts 94°
2026-05-06 00:44 42.61560 31.76622 35046 ft 492 kts 94°
2026-05-06 00:45 42.60536 31.85848 35046 ft 494 kts 95°
2026-05-06 00:45 42.59506 31.95041 35049 ft 492 kts 95°
2026-05-06 00:46 42.58472 32.04224 35048 ft 491 kts 94°
2026-05-06 00:46 42.57456 32.13381 35046 ft 491 kts 95°
2026-05-06 00:47 42.56393 32.22542 35044 ft 492 kts 95°
2026-05-06 00:47 42.55351 32.31643 35055 ft 491 kts 95°
2026-05-06 00:48 42.54286 32.40778 35062 ft 491 kts 95°
2026-05-06 00:48 42.53220 32.49922 35043 ft 490 kts 95°
2026-05-06 00:49 42.52145 32.59046 35052 ft 491 kts 95°
2026-05-06 00:49 42.51246 32.66645 35054 ft 492 kts 95°
2026-05-06 00:50 42.50151 32.75798 35052 ft 491 kts 95°
2026-05-06 00:50 42.49053 32.84948 35052 ft 491 kts 95°
2026-05-06 00:51 42.47949 32.94072 35051 ft 490 kts 95°
2026-05-06 00:51 42.46840 33.03187 35055 ft 491 kts 95°
2026-05-06 00:52 42.45718 33.12316 35058 ft 492 kts 95°
2026-05-06 00:52 42.44590 33.21468 35056 ft 493 kts 96°
2026-05-06 00:53 42.43445 33.30643 35051 ft 496 kts 96°
2026-05-06 00:53 42.42301 33.39778 35051 ft 495 kts 96°
2026-05-06 00:54 42.41143 33.48962 35054 ft 493 kts 96°
2026-05-06 00:54 42.39985 33.58085 35048 ft 491 kts 96°
2026-05-06 00:55 42.38822 33.67199 35049 ft 493 kts 96°
2026-05-06 00:55 42.37643 33.76363 35055 ft 494 kts 96°
2026-05-06 00:56 42.36454 33.85540 35053 ft 496 kts 96°
2026-05-06 00:56 42.35272 33.94648 35055 ft 495 kts 96°
2026-05-06 00:57 42.34074 34.03814 35055 ft 496 kts 97°
2026-05-06 00:57 42.32868 34.12992 35053 ft 496 kts 97°
2026-05-06 00:58 42.31654 34.22167 35060 ft 496 kts 97°
2026-05-06 00:58 42.30430 34.31353 35059 ft 496 kts 97°
2026-05-06 00:59 42.29202 34.40530 35058 ft 497 kts 97°
2026-05-06 00:59 42.27959 34.49721 35061 ft 496 kts 98°
2026-05-06 01:00 42.26718 34.58857 35059 ft 494 kts 98°
2026-05-06 01:00 42.25472 34.67975 35057 ft 494 kts 98°
2026-05-06 01:01 42.24215 34.77103 35060 ft 496 kts 98°
2026-05-06 01:01 42.22947 34.86259 35064 ft 497 kts 98°
2026-05-06 01:02 42.21672 34.95367 35061 ft 497 kts 98°
2026-05-06 01:02 42.20387 35.04523 35062 ft 496 kts 98°
2026-05-06 01:03 42.19093 35.13670 35059 ft 496 kts 99°
2026-05-06 01:03 42.17797 35.22793 35057 ft 494 kts 99°
2026-05-06 01:04 42.16494 35.31891 35053 ft 494 kts 99°
2026-05-06 01:04 42.15183 35.41000 35062 ft 496 kts 99°
2026-05-06 01:05 42.13866 35.50131 35060 ft 496 kts 100°
2026-05-06 01:05 42.12438 35.59971 35062 ft 494 kts 100°
2026-05-06 01:06 42.11108 35.69048 35060 ft 494 kts 100°
2026-05-06 01:06 42.09776 35.78130 35061 ft 494 kts 100°
2026-05-06 01:07 42.08427 35.87229 35063 ft 495 kts 101°
2026-05-06 01:07 42.07089 35.96252 35066 ft 495 kts 101°
2026-05-06 01:08 42.05723 36.05364 35065 ft 496 kts 101°
2026-05-06 01:08 42.04356 36.14465 35064 ft 497 kts 101°
2026-05-06 01:09 42.02978 36.23576 35065 ft 497 kts 101°
2026-05-06 01:09 42.01590 36.32699 35065 ft 497 kts 101°
2026-05-06 01:10 42.00202 36.41774 35059 ft 495 kts 101°
2026-05-06 01:10 41.98808 36.50838 35061 ft 495 kts 101°
2026-05-06 01:11 41.97411 36.59875 35061 ft 494 kts 101°
2026-05-06 01:11 41.96239 36.67396 35059 ft 494 kts 101°
2026-05-06 01:12 41.94599 36.77906 35060 ft 494 kts 101°
2026-05-06 01:12 41.93178 36.86955 35062 ft 494 kts 102°
2026-05-06 01:13 41.91990 36.94455 35058 ft 494 kts 102°
2026-05-06 01:13 41.90539 37.03476 35057 ft 494 kts 104°
2026-05-06 01:14 41.86671 37.16303 35058 ft 495 kts 113°
2026-05-06 01:14 41.84014 37.24850 35061 ft 496 kts 112°
2026-05-06 01:15 41.81313 37.33356 35063 ft 495 kts 113°
2026-05-06 01:15 41.78640 37.41800 35062 ft 495 kts 113°
2026-05-06 01:16 41.75941 37.50290 35061 ft 496 kts 113°
2026-05-06 01:16 41.73228 37.58790 35061 ft 495 kts 113°
2026-05-06 01:17 41.70514 37.67284 35060 ft 496 kts 113°
2026-05-06 01:17 41.67793 37.75762 35056 ft 495 kts 114°
2026-05-06 01:18 41.65076 37.84214 35055 ft 494 kts 114°
2026-05-06 01:18 41.62348 37.92664 35055 ft 494 kts 114°
2026-05-06 01:19 41.59637 38.01041 35056 ft 495 kts 114°
2026-05-06 01:19 41.56901 38.09484 35058 ft 495 kts 114°
2026-05-06 01:20 41.54142 38.17927 35060 ft 496 kts 114°
2026-05-06 01:20 41.51390 38.26364 35057 ft 495 kts 114°
2026-05-06 01:21 41.48631 38.34798 35060 ft 496 kts 114°
2026-05-06 01:21 41.45871 38.43172 35058 ft 497 kts 114°
2026-05-06 01:22 41.43100 38.51589 35054 ft 494 kts 114°
2026-05-06 01:22 41.40328 38.59961 35049 ft 494 kts 114°
2026-05-06 01:23 41.37557 38.68330 35049 ft 495 kts 115°
2026-05-06 01:23 41.34761 38.76708 35048 ft 494 kts 115°
2026-05-06 01:24 41.32002 38.85084 35049 ft 494 kts 114°
2026-05-06 01:24 41.29281 38.93467 35050 ft 494 kts 115°
2026-05-06 01:25 41.26519 39.01837 35051 ft 495 kts 114°
2026-05-06 01:25 41.23763 39.10233 35051 ft 496 kts 115°
2026-05-06 01:26 41.20978 39.18540 35041 ft 495 kts 117°
2026-05-06 01:26 41.18092 39.26857 35046 ft 496 kts 115°
2026-05-06 01:27 41.15194 39.35164 35046 ft 496 kts 116°
2026-05-06 01:27 41.12272 39.43470 35054 ft 496 kts 116°
2026-05-06 01:28 41.09370 39.51755 35061 ft 495 kts 116°
2026-05-06 01:28 41.06452 39.60014 35067 ft 494 kts 116°
2026-05-06 01:29 41.03539 39.68263 35066 ft 494 kts 116°
2026-05-06 01:29 41.00638 39.76534 35063 ft 496 kts 113°
2026-05-06 01:30 40.99670 39.80923 35064 ft 498 kts 101°
2026-05-06 01:30 40.99339 39.85484 35071 ft 499 kts 93°
2026-05-06 01:30 40.99206 39.94633 35081 ft 500 kts 92°
2026-05-06 01:31 40.98938 40.03832 35071 ft 500 kts 93°
2026-05-06 01:31 40.98725 40.13049 35065 ft 501 kts 93°
2026-05-06 01:32 40.98483 40.22256 35062 ft 499 kts 93°
2026-05-06 01:32 40.98228 40.31435 35058 ft 498 kts 93°
2026-05-06 01:33 40.97978 40.40614 35056 ft 499 kts 93°
2026-05-06 01:33 40.97709 40.49795 35055 ft 500 kts 93°
2026-05-06 01:34 40.97441 40.58959 35058 ft 501 kts 93°
2026-05-06 01:34 40.97159 40.68189 35058 ft 501 kts 94°
2026-05-06 01:35 40.96873 40.77416 35055 ft 501 kts 94°
2026-05-06 01:35 40.96578 40.86642 35043 ft 502 kts 94°
2026-05-06 01:36 40.96274 40.95891 35041 ft 503 kts 94°
2026-05-06 01:36 40.95967 41.05080 35041 ft 503 kts 94°